Simultaneous Nadir Overpasses (SNOs) Predictions

Prediction of SNOs between AQUA and NOAA-19 Satellite Orbit:

Table of predicted SNOs for the next 14.0 days since TLE Epoch: 12/6/2019
Index Date (AQUA) Time (AQUA) Lat,Lon (AQUA) SZA (AQUA ) Date (NOAA-19) Time (NOAA-19) Lat,Lon (NOAA-19) SZA (NOAA-19 ) Distance(km) Time Diff (sec)
1 12/08/2019 03:17:30 80.10, 99.16 103.92 12/08/2019 03:16:39 80.12, 99.24 103.95 2.72 51
2 12/08/2019 04:06:57 -80.14, -93.54 76.02 12/08/2019 04:07:38 -80.11, -93.52 76.05 2.37 41
3 12/10/2019 08:51:15 -80.13,-164.54 75.79 12/10/2019 08:50:01 -80.07,-164.70 75.81 7.34 74
4 12/10/2019 09:40:42 80.12, 3.17 104.20 12/10/2019 09:41:01 80.12, 3.27 104.19 1.81 19
5 12/12/2019 15:14:26 -80.12, 99.75 75.60 12/12/2019 15:14:21 -80.10, 99.78 75.62 1.94 5
6 12/14/2019 20:48:11 80.10,-163.58 104.55 12/14/2019 20:47:45 80.10,-163.48 104.55 1.89 26
7 12/14/2019 21:37:37 -80.11, 4.02 75.45 12/14/2019 21:38:42 -80.11, 3.93 75.46 1.60 65
8 12/17/2019 02:21:55 -80.11, -67.04 75.32 12/17/2019 02:21:04 -80.08, -66.97 75.33 2.97 51
9 12/17/2019 03:11:22 80.10, 100.67 104.67 12/17/2019 03:12:06 80.12, 100.79 104.67 3.25 44
10 12/19/2019 07:55:40 80.10, 29.59 104.76 12/19/2019 07:54:29 80.08, 29.68 104.76 3.03 71




NCC Satellite Simultaneous Nadir Overpasses (SNOs) Prediction Service
